1092065600 Atlas Copco Epiroc Spare Parts Catalog By CPMC China

Original genuine Atlas Copco Epiroc BRA FL2 5571494800 parts China Supplier

At Chengdu Pudding Mechatronic Co. (CPMC), we understand the importance of proper maintenance in mining operations. That’s why we are dedicated to providing our customers with a comprehensive catalog of genuine 1092065600 Atlas Copco Epiroc Spare Parts that are reliable, high-quality, and authentic. Our portfolio of genuine and high-quality Atlas Copco Epiroc spare parts ensures mining operations worldwide can stay up and running optimally, regardless of severe wear and tear.

    Full Name

    City

    Phone

    Company Name

    Detailed Shipping Add

    Quick RFQ, Pls provide P/N, compressors name plate, etc.

    Please attach 1 file up to 2MB if you have.

    Atlas Copco Epiroc Spare Parts Catalog

    1092065600 LEVEL GAUGE Atlas Copco Epiroc 液位计 1092 0656 00
    1613902000 LEVEL GAUGE Atlas Copco Epiroc 液位计 1613 9020 00
    1616510800 LEVEL GAUGE Atlas Copco Epiroc 液位计 1616 5108 00
    3176002176 LEVEL SWITCH Atlas Copco Epiroc 液位开关 3176 0021 76
    3176003155 LEVEL SENSOR Atlas Copco Epiroc 液位传感器 3176 0031 55
    3176004506 LEVEL SENSOR Atlas Copco Epiroc 液位传感器 3176 0045 06
    3176005333 LEVEL SENSOR Atlas Copco Epiroc 液位传感器 3176 0053 33
    3176005923 LEVEL SWITCH Atlas Copco Epiroc 液位开关 3176 0059 23
    3176006073 LEVEL SWITCH Atlas Copco Epiroc 液位开关 3176 0060 73
    3176006074 LEVEL SWITCH Atlas Copco Epiroc 液位开关 3176 0060 74
    3176453103 LEVEL SWITCH Atlas Copco Epiroc 液位开关 3176 4531 03
    3222314282 LEVEL SENSOR Atlas Copco Epiroc 液位传感器 3222 3142 82
    3222319555 LEVEL GLASS Atlas Copco Epiroc 水平玻璃 3222 3195 55
    3222321906 LEVEL SWITCH Atlas Copco Epiroc 液位开关 3222 3219 06
    3222323106 LEVEL GLASS Atlas Copco Epiroc 水平玻璃 3222 3231 06
    3222334147 LEVEL SWITCH Atlas Copco Epiroc 液位开关 3222 3341 47
    3222334148 LEVEL SWITCH Atlas Copco Epiroc 液位开关 3222 3341 48
    3222334153 LEVEL SWITCH Atlas Copco Epiroc 液位开关 3222 3341 53
    3222334206 LEVEL SENSOR Atlas Copco Epiroc 液位传感器 3222 3342 06
    3222334964 LEVEL SWITCH Atlas Copco Epiroc 液位开关 3222 3349 64
    3222336877 LEVEL SWITCH Atlas Copco Epiroc 液位开关 3222 3368 77
    3222342287 LEVEL SWITCH Atlas Copco Epiroc 液位开关 3222 3422 87
    3222343371 LEVEL SENSOR Atlas Copco Epiroc 液位传感器 3222 3433 71
    3222344258 LEVEL SWITCH Atlas Copco Epiroc 液位开关 3222 3442 58
    3222348791 LEVEL SENSOR Atlas Copco Epiroc 液位传感器 3222 3487 91
    3222350060 LEVEL SENSOR Atlas Copco Epiroc 液位传感器 3222 3500 60
    3222350062 LEVEL SENSOR Atlas Copco Epiroc 液位传感器 3222 3500 62
    3716385200 LEVEL SWITCH Atlas Copco Epiroc 液位开关 3716 3852 00
    3719000337 LEVEL & TEMP Atlas Copco Epiroc 级别&临时雇员 3719 0003 37
    3719000785 LEVEL WIND Atlas Copco Epiroc 水平风 3719 0007 85
    3719002956 LEVEL & TEMP Atlas Copco Epiroc 级别&临时雇员 3719 0029 56
    5112293100 LEVEL SWITCH Atlas Copco Epiroc 液位开关 5112 2931 00
    5112300591 LEVEL SWITCH Atlas Copco Epiroc 液位开关 5112 3005 91
    5112302444 LEVEL SENSOR Atlas Copco Epiroc 液位传感器 5112 3024 44
    5112310299 LEVEL GLASS Atlas Copco Epiroc 水平玻璃 5112 3102 99
    5112310312 LEVEL GLASS Atlas Copco Epiroc 水平玻璃 5112 3103 12
    5112330890 LEVEL SENSOR Atlas Copco Epiroc 液位传感器 5112 3308 90
    5580025084 LEVEL SENSOR Atlas Copco Epiroc 液位传感器 5580 0250 84
    5580081812 LEVEL SENSOR Atlas Copco Epiroc 液位传感器 5580 0818 12
    5580101234 LEVEL SENSOR Atlas Copco Epiroc 液位传感器 5580 1012 34
    6060006592 LEVEL SENSOR Atlas Copco Epiroc 液位传感器 6060 0065 92
    8440307527 LEVEL SENSOR Atlas Copco Epiroc 液位传感器 8440 3075 27
    9106188781 LEVEL SWITCH Atlas Copco Epiroc 液位开关 9106 1887 81
    9106229231 LEVEL SENSOR Atlas Copco Epiroc 液位传感器 9106 2292 31
    9106240484 LEVEL SWITCH Atlas Copco Epiroc 液位开关 9106 2404 84
    9106241989 LEVEL SENSOR Atlas Copco Epiroc 液位传感器 9106 2419 89
    9106241996 LEVEL SENSOR Atlas Copco Epiroc 液位传感器 9106 2419 96
    0872211504 LEVEL METER Atlas Copco Epiroc 液位计 0872 2115 04
    0981000494 LEVEL SWITCH Atlas Copco Epiroc 液位开关 0981 0004 94
    1089038103 LEVEL SWITCH Atlas Copco Epiroc 液位开关 1089 0381 03
    1089038104 LEVEL SWITCH Atlas Copco Epiroc 液位开关 1089 0381 04
    1089039301 LEVEL SENSOR Atlas Copco Epiroc 液位传感器 1089 0393 01
    1089056803 LEVEL SWITCH Atlas Copco Epiroc 液位开关 1089 0568 03
    1089056811 LEVEL SWITCH Atlas Copco Epiroc 液位开关 1089 0568 11
    1089056826 LEVEL SWITCH Atlas Copco Epiroc 液位开关 1089 0568 26
    1089065903 LEVEL SENSOR Atlas Copco Epiroc 液位传感器 1089 0659 03
    1089065905 LEVEL INDICATOR Atlas Copco Epiroc 液位指示器 1089 0659 05
    1089065907 LEVEL SWITCH Atlas Copco Epiroc 液位开关 1089 0659 07
    1089065951 LEVEL SWITCH Atlas Copco Epiroc 液位开关 1089 0659 51
    1089065952 LEVEL SWITCH Atlas Copco Epiroc 液位开关 1089 0659 52
    1089065953 LEVEL SWITCH Atlas Copco Epiroc 液位开关 1089 0659 53
    1089065955 LEVEL SWITCH Atlas Copco Epiroc 液位开关 1089 0659 55
    1089946701 LEVEL SWITCH Atlas Copco Epiroc 液位开关 1089 9467 01
    1089946704 LEVEL SWITCH Atlas Copco Epiroc 液位开关 1089 9467 04
    1089946705 LEVEL SWITCH Atlas Copco Epiroc 液位开关 1089 9467 05
    1089946706 LEVEL SWITCH Atlas Copco Epiroc 液位开关 1089 9467 06
    1089946712 LEVEL SWITCH Atlas Copco Epiroc 液位开关 1089 9467 12
    1089946713 LEVEL SWITCH Atlas Copco Epiroc 液位开关 1089 9467 13
    1089946714 LEVEL SWITCH Atlas Copco Epiroc 液位开关 1089 9467 14
    1089946715 LEVEL SWITCH Atlas Copco Epiroc 液位开关 1089 9467 15
    1089946730 LEVEL SENSOR Atlas Copco Epiroc 液位传感器 1089 9467 30
    1089999861 LEVEL SWITCH Atlas Copco Epiroc 液位开关 1089 9998 61
    1092324500 LEVEL GUAGE ADAPTER Atlas Copco Epiroc 液位计适配器 1092 3245 00
    1092324600 LEVEL GAUGE Atlas Copco Epiroc 液位计 1092 3246 00
    1092383002 LEVEL SENSOR CFM685 Atlas Copco Epiroc 液位传感器CFM685 1092 3830 02
    1092383003 LEVEL SNESOR Atlas Copco Epiroc 电平传感器 1092 3830 03
    1092397503 LEVEL SENSOR Atlas Copco Epiroc 液位传感器 1092 3975 03
    1092633701 LEVEL SENSOR Atlas Copco Epiroc 液位传感器 1092 6337 01
    1092717500 LEVEL GUAGE FUEL Atlas Copco Epiroc 燃油液位计 1092 7175 00
    1092843400 LEVEL SENSOR Atlas Copco Epiroc 液位传感器 1092 8434 00
    1092927600 LEVEL SENSOR Atlas Copco Epiroc 液位传感器 1092 9276 00
    1094043600 LEVEL SWTICH Atlas Copco Epiroc 液位开关 1094 0436 00
    1094219400 LEVEL SWITCH Atlas Copco Epiroc 液位开关 1094 2194 00
    1310030748 LEVEL SENSOR Atlas Copco Epiroc 液位传感器 1310 0307 48
    1310081095 LEVEL Atlas Copco Epiroc 液位 1310 0810 95
    1604026282 LEVEL INDICATOR Atlas Copco Epiroc 液位指示器 1604 0262 82
    1604026283 LEVEL INDICATOR Atlas Copco Epiroc 液位指示器 1604 0262 83
    1604026284 LEVEL INDICATOR ASSY Atlas Copco Epiroc 液位指示器总成 1604 0262 84
    1604080900 LEVEL INDICATOR Atlas Copco Epiroc 液位指示器 1604 0809 00
    1604080901 LEVEL INDICATOR Atlas Copco Epiroc 液位指示器 1604 0809 01
    1604174800 LEVEL INDICATOR Atlas Copco Epiroc 液位指示器 1604 1748 00
    1604237780 LEVEL INDICATOR Atlas Copco Epiroc 液位指示器 1604 2377 80
    1604237781 LEVEL INDICATOR Atlas Copco Epiroc 液位指示器 1604 2377 81
    1604237782 LEVEL INDICATOR Atlas Copco Epiroc 液位指示器 1604 2377 82
    1604845200 LEVEL GAUGE Atlas Copco Epiroc 液位计 1604 8452 00
    1605008900 LEVEL INDICATOR Atlas Copco Epiroc 液位指示器 1605 0089 00
    1614851000 LEVEL SWITCH Atlas Copco Epiroc 液位开关 1614 8510 00
    1615506181 LEVEL INDICATOR Atlas Copco Epiroc 液位指示器 1615 5061 81
    1615506182 LEVEL INDICATOR Atlas Copco Epiroc 液位指示器 1615 5061 82
    1615559400 LEVEL DEVICE75 Atlas Copco Epiroc 液位装置75 1615 5594 00
    1615622400 LEVEL SENSOR Atlas Copco Epiroc 液位传感器 1615 6224 00
    1615765583 LEVEL INDICATOR Atlas Copco Epiroc 液位指示器 1615 7655 83
    1615765584 LEVEL INDICATOR Atlas Copco Epiroc 液位指示器 1615 7655 84
    1615847800 LEVEL INDICATOR Atlas Copco Epiroc 液位指示器 1615 8478 00
    1615963880 LEVEL INDICATOR Atlas Copco Epiroc 液位指示器 1615 9638 80
    1615963881 LEVEL INDICATOR Atlas Copco Epiroc 液位指示器 1615 9638 81
    1615963882 LEVEL INDICATOR Atlas Copco Epiroc 液位指示器 1615 9638 82
    1619660500 LEVEL SWITCH Atlas Copco Epiroc 液位开关 1619 6605 00
    1626313000 LEVEL DEVICE Atlas Copco Epiroc 液位计 1626 3130 00
    1636002403 LEVEL INDICATOR Atlas Copco Epiroc 液位指示器 1636 0024 03
    1636007767 LEVEL INDICATOR Atlas Copco Epiroc 液位指示器 1636 0077 67
    1638102700 LEVEL SENSOR Atlas Copco Epiroc 液位传感器 1638 1027 00
    1901000634 LEVEL GLASS Atlas Copco Epiroc 水平玻璃 1901 0006 34
    1901001546 LEVEL TRANSPARENT Atlas Copco Epiroc 级别透明 1901 0015 46
    1901002560 LEVEL GAUGE Atlas Copco Epiroc 液位计 1901 0025 60
    1901003851 LEVEL GAUGE Atlas Copco Epiroc 液位计 1901 0038 51
    1901003852 LEVEL GLASS Atlas Copco Epiroc 水平玻璃 1901 0038 52
    1901600437 LEVEL MURPHY Atlas Copco Epiroc 水平墨菲 1901 6004 37
    2001027200 LEVEL SWITCH Atlas Copco Epiroc 液位开关 2001 0272 00
    2236202784 LEVEL SWITCH ASSY Atlas Copco Epiroc 液位开关总成 2236 2027 84
    2252827800 LEVEL DEVICE Atlas Copco Epiroc 液位计 2252 8278 00
    2310081586 LEVEL Atlas Copco Epiroc 液位 2310 0815 86
    2650046861 LEVEL Atlas Copco Epiroc 液位 2650 0468 61
    2650258565 LEVEL, CIRCULAR Atlas Copco Epiroc 水平,圆形 2650 2585 65
    2651997211 LEVEL GAGE… Atlas Copco Epiroc 液位计… 2651 9972 11
    2653209359 LEVEL SWITCH ASSY Atlas Copco Epiroc 液位开关总成 2653 2093 59
    2653209755 LEVEL SWITCH ASSY Atlas Copco Epiroc 液位开关总成 2653 2097 55
    2653235768 LEVEL SWITCH ASSY Atlas Copco Epiroc 液位开关总成 2653 2357 68
    2653239752 LEVEL SWITCH ASSY Atlas Copco Epiroc 液位开关总成 2653 2397 52
    2653259123 LEVEL SUB AI Atlas Copco Epiroc 次级人工智能 2653 2591 23
    2653263554 LEVEL SWITCH Atlas Copco Epiroc 液位开关 2653 2635 54
    2653299434 LEVEL SWITCH ASSY Atlas Copco Epiroc 液位开关总成 2653 2994 34
    2653299442 LEVEL SWITCH ASSY Atlas Copco Epiroc 液位开关总成 2653 2994 42
    2653340972 LEVEL SWITCH Atlas Copco Epiroc 液位开关 2653 3409 72
    2656822919 LEVEL Atlas Copco Epiroc 液位 2656 8229 19
    2657100075 LEVEL, CIRCL Atlas Copco Epiroc 水平,圆形 2657 1000 75
    2658038761 LEVEL Atlas Copco Epiroc 液位 2658 0387 61
    2658041468 LEVEL-DERRIC Atlas Copco Epiroc 水平井架 2658 0414 68
    2658360521 LEVEL SENSOR Atlas Copco Epiroc 液位传感器 2658 3605 21
    2658396317 LEVEL SIGHT GAGE… Atlas Copco Epiroc 液位计… 2658 3963 17
    2658400013 LEVEL CONTRO Atlas Copco Epiroc 液位控制 2658 4000 13
    2658415609 LEVEL SENSOR, HALL… Atlas Copco Epiroc 霍尔液位传感器… 2658 4156 09
    2658415924 LEVEL SENDER Atlas Copco Epiroc 液位发送器 2658 4159 24
    2658565199 LEVEL SIGHT GLASS… Atlas Copco Epiroc 水平观察镜… 2658 5651 99
    2658611056 LEVEL SENSOR Atlas Copco Epiroc 液位传感器 2658 6110 56
    2659606970 LEVEL SENSOR Atlas Copco Epiroc 液位传感器 2659 6069 70
    2913124700 LEVEL SWITCH Atlas Copco Epiroc 液位开关 2913 1247 00
    2914891500 LEVEL Atlas Copco Epiroc 液位 2914 8915 00
    2914958400 LEVEL SWITCH Atlas Copco Epiroc 液位开关 2914 9584 00
    3092203003 Level switch to dieseltank 70l Atlas Copco Epiroc 至柴油油箱的液位开关70l 3092 2030 03
    3092332342 LEVEL SWITCH Atlas Copco Epiroc 液位开关 3092 3323 42
    3092631705 LEVEL-AND TEMP.… Atlas Copco Epiroc 液位和温度。… 3092 6317 05
    3092634083 LEVEL SWITCH Atlas Copco Epiroc 液位开关 3092 6340 83
    3121236388 LEVEL SENSOR Atlas Copco Epiroc 液位传感器 3121 2363 88
    3176000171 LEVEL SENSOR Atlas Copco Epiroc 液位传感器 3176 0001 71
    3176000503 LEVEL SWITCH-SEE Atlas Copco Epiroc 水平开关-SEE 3176 0005 03
    3176000704 LEVEL SENSOR Atlas Copco Epiroc 液位传感器 3176 0007 04
    3176000705 LEVEL SENSOR Atlas Copco Epiroc 液位传感器 3176 0007 05
    3176002102 LEVEL SENSOR Atlas Copco Epiroc 液位传感器 3176 0021 02
    3176002135 LEVEL SENSOR Atlas Copco Epiroc 液位传感器 3176 0021 35
    3176002609 LEVEL SENSOR Atlas Copco Epiroc 液位传感器 3176 0026 09
    3176004505 LEVEL SENSOR Atlas Copco Epiroc 液位传感器 3176 0045 05
    3176005007 LEVEL SENSOR Atlas Copco Epiroc 液位传感器 3176 0050 07
    3176005069 LEVEL SWITCH Atlas Copco Epiroc 液位开关 3176 0050 69
    3176005070 LEVEL SWITCH Atlas Copco Epiroc 液位开关 3176 0050 70
    3176005868 LEVEL SENSOR Atlas Copco Epiroc 液位传感器 3176 0058 68
    3176005872 LEVEL SENSOR Atlas Copco Epiroc 液位传感器 3176 0058 72
    3176006311 LEVEL SENSOR Atlas Copco Epiroc 液位传感器 3176 0063 11
    3176008300 LEVEL SWITCH Atlas Copco Epiroc 液位开关 3176 0083 00
    3176008514 LEVEL SWITCH Atlas Copco Epiroc 液位开关 3176 0085 14
    3176415007 LEVEL SWITCH Atlas Copco Epiroc 液位开关 3176 4150 07
    3176453101 LEVEL SWITCH Atlas Copco Epiroc 液位开关 3176 4531 01
    3176453104 LEVEL SWITCH Atlas Copco Epiroc 液位开关 3176 4531 04
    3176453105 LEVEL SWITCH Atlas Copco Epiroc 液位开关 3176 4531 05
    3176453106 LEVEL GUARD Atlas Copco Epiroc 水平防护装置 3176 4531 06
    3176453107 LEVEL SWITCH Atlas Copco Epiroc 液位开关 3176 4531 07
    3176453111 LEVEL SWITCH Atlas Copco Epiroc 液位开关 3176 4531 11
    3176730900 LEVEL Atlas Copco Epiroc 液位 3176 7309 00
    3176842600 LEVEL INDICATOR Atlas Copco Epiroc 液位指示器 3176 8426 00
    3176872200 LEVEL SWITCH Atlas Copco Epiroc 液位开关 3176 8722 00
    3214557700 LEVEL SWITCH Atlas Copco Epiroc 液位开关 3214 5577 00
    3214679300 LEVEL TRANSD Atlas Copco Epiroc 电平转换器 3214 6793 00
    3216589900 LEVEL.GAUGE Atlas Copco Epiroc 液位计 3216 5899 00
    3216590000 LEVEL DEVICE Atlas Copco Epiroc 液位计 3216 5900 00
    3216710400 LEVEL INDIC Atlas Copco Epiroc 液位指示器 3216 7104 00
    3216947200 LEVEL INDIC Atlas Copco Epiroc 液位指示器 3216 9472 00
    3216961700 LEVEL SENSOR Atlas Copco Epiroc 液位传感器 3216 9617 00
    3217000242 LEVEL SWITCH Atlas Copco Epiroc 液位开关 3217 0002 42
    3217000850 LEVEL SWITCH Atlas Copco Epiroc 液位开关 3217 0008 50
    3217390918 LEVEL PLUG Atlas Copco Epiroc 液位塞 3217 3909 18
    3217661390 LEVEL GAUGE Atlas Copco Epiroc 液位计 3217 6613 90
    3217996250 LEVEL SENSOR Atlas Copco Epiroc 液位传感器 3217 9962 50
    3222056600 LEVEL INDIC. Atlas Copco Epiroc 液位指示器。 3222 0566 00
    3222056601 LEVEL METER Atlas Copco Epiroc 液位计 3222 0566 01
    3222304819 LEVEL SENSOR Atlas Copco Epiroc 液位传感器 3222 3048 19
    3222307072 LEVEL SENSOR Atlas Copco Epiroc 液位传感器 3222 3070 72
    3222307104 LEVEL SENSOR Atlas Copco Epiroc 液位传感器 3222 3071 04
    3222310615 LEVEL SWITCH Atlas Copco Epiroc 液位开关 3222 3106 15
    3222313253 LEVEL SENSOR Atlas Copco Epiroc 液位传感器 3222 3132 53
    3222313678 LEVEL SWITCH Atlas Copco Epiroc 液位开关 3222 3136 78
    3222314289 LEVEL SENSOR Atlas Copco Epiroc 液位传感器 3222 3142 89
    3222314335 LEVEL SENSOR Atlas Copco Epiroc 液位传感器 3222 3143 35
    3222314336 LEVEL SENSOR Atlas Copco Epiroc 液位传感器 3222 3143 36
    3222321476 LEVEL SWITCH Atlas Copco Epiroc 液位开关 3222 3214 76
    3222327546 LEVEL SENSOR, (B361) Atlas Copco Epiroc 液位传感器,(B361) 3222 3275 46
    3222327547 LEVEL SENSOR (B380) Atlas Copco Epiroc 液位传感器(B380) 3222 3275 47
    3222327788 LEVEL SENSOR Atlas Copco Epiroc 液位传感器 3222 3277 88
    3222327803 LEVEL SENSOR Atlas Copco Epiroc 液位传感器 3222 3278 03
    3222329472 LEVEL SWITCH Atlas Copco Epiroc 液位开关 3222 3294 72
    3222333202 LEVEL SWITCH Atlas Copco Epiroc 液位开关 3222 3332 02
    3222333229 LEVEL SENSOR Atlas Copco Epiroc 液位传感器 3222 3332 29
    3222334965 LEVEL SWITCH Atlas Copco Epiroc 液位开关 3222 3349 65
    3222341209 LEVEL SENSOR Atlas Copco Epiroc 液位传感器 3222 3412 09
    3222346434 LEVEL Atlas Copco Epiroc 液位 3222 3464 34
    3222346832 LEVEL SENSOR Atlas Copco Epiroc 液位传感器 3222 3468 32
    3222347278 LEVEL SENSOR Atlas Copco Epiroc 液位传感器 3222 3472 78
    3222348628 LEVEL SENSOR Atlas Copco Epiroc 液位传感器 3222 3486 28
    3222350061 LEVEL SENSOR Atlas Copco Epiroc 液位传感器 3222 3500 61
    3222994746 LEVEL SENSOR Atlas Copco Epiroc 液位传感器 3222 9947 46
    32522347278 LEVEL SENSOR Atlas Copco Epiroc 液位传感器 32522 3472 78
    3370002101 LEVEL TEMPER Atlas Copco Epiroc 水平回火 3370 0021 01
    3370032301 LEVEL INDICA Atlas Copco Epiroc 水平籼稻 3370 0323 01
    3370100015 LEVEL SWITCH Atlas Copco Epiroc 液位开关 3370 1000 15
    3378512026 LEVEL Atlas Copco Epiroc 液位 3378 5120 26
    3378512027 LEVEL Atlas Copco Epiroc 液位 3378 5120 27
    3378512227 LEVEL Atlas Copco Epiroc 液位 3378 5122 27
    3716455900 LEVEL SCREW Atlas Copco Epiroc 水平螺丝 3716 4559 00
    3716493700 LEVEL SWITCH Atlas Copco Epiroc 液位开关 3716 4937 00
    3716713200 LEVEL INDICA Atlas Copco Epiroc 水平籼稻 3716 7132 00
    3716713201 LEVEL INDICA Atlas Copco Epiroc 水平籼稻 3716 7132 01
    3716743600 LEVEL GLASS Atlas Copco Epiroc 水平玻璃 3716 7436 00
    3717005088 LEVEL SENSOR Atlas Copco Epiroc 液位传感器 3717 0050 88
    3717007142 LEVEL SENSOR Atlas Copco Epiroc 液位传感器 3717 0071 42
    3719000061 LEVEL WIND S Atlas Copco Epiroc 水平风S 3719 0000 61
    3719001782 LEVEL & TEMP Atlas Copco Epiroc 级别&临时雇员 3719 0017 82
    3719004332 LEVEL WIND B Atlas Copco Epiroc 水平风B 3719 0043 32
    3719004338 LEVEL WIND S Atlas Copco Epiroc 水平风S 3719 0043 38
    3719004675 LEVEL WIND B Atlas Copco Epiroc 水平风B 3719 0046 75
    3719004690 LEVEL WIND COVER Atlas Copco Epiroc 水平风覆盖 3719 0046 90
    3719005838 LEVEL & TEMP GUARD 150mm 80DEG Atlas Copco Epiroc 级别&温度防护装置150毫米80摄氏度 3719 0058 38
    3719011505 LEVEL WIND ROLLER Atlas Copco Epiroc 水平风辊 3719 0115 05
    3719012285 LEVEL & TEMP SENSOR HYD 150 MM Atlas Copco Epiroc 级别&液压温度传感器150 MM 3719 0122 85
    3719012286 LEVEL & TEMP SENSOR HYD 210 MM Atlas Copco Epiroc 级别&210毫米液压温度传感器 3719 0122 86
    3719013210 LEVEL WIND LEVER ARM Atlas Copco Epiroc 水平风杠杆臂 3719 0132 10
    3719013454 LEVEL SWITCH Atlas Copco Epiroc 液位开关 3719 0134 54
    3719014342 LEVEL METER Atlas Copco Epiroc 液位计 3719 0143 42
    3719016606 LEVEL SENSOR Atlas Copco Epiroc 液位传感器 3719 0166 06
    3720002137 LEVEL GLASS Atlas Copco Epiroc 水平玻璃 3720 0021 37
    3725002051 LEVEL WIND SCREW Atlas Copco Epiroc 水平风螺杆 3725 0020 51
    3725002082 LEVEL WIND BRACKET RH Atlas Copco Epiroc 水平风支架RH 3725 0020 82
    3725002084 LEVEL WIND BRACKET LH Atlas Copco Epiroc 水平风支架LH 3725 0020 84
    3980134800 LEVEL GUARD Atlas Copco Epiroc 水平防护装置 3980 1348 00
    3980249400 LEVEL GAUGE Atlas Copco Epiroc 液位计 3980 2494 00
    4140117058 LEVEL SWITCH Atlas Copco Epiroc 液位开关 4140 1170 58
    4700359344 LEVEL GAUGE Atlas Copco Epiroc 液位计 4700 3593 44
    4700372597 LEVEL, GLASS Atlas Copco Epiroc 玻璃液位计 4700 3725 97
    4700375850 LEVEL SENDER Atlas Copco Epiroc 液位发送器 4700 3758 50
    4700378574 LEVEL SENDER Atlas Copco Epiroc 液位发送器 4700 3785 74
    4700383366 LEVEL INDICATOR (… Atlas Copco Epiroc 液位指示器(… 4700 3833 66
    4700389726 LEVEL GAUGE Atlas Copco Epiroc 液位计 4700 3897 26
    4700389730 LEVEL SENDER Atlas Copco Epiroc 液位发送器 4700 3897 30
    4700389731 LEVEL SENSOR WATER… Atlas Copco Epiroc 液位传感器水… 4700 3897 31
    4700389917 LEVEL SENDER Atlas Copco Epiroc 液位发送器 4700 3899 17
    4700792492 LEVEL GAUGE Atlas Copco Epiroc 液位计 4700 7924 92
    4700904817 LEVEL GAUGE Atlas Copco Epiroc 液位计 4700 9048 17
    4700913614 LEVEL INDICATOR Atlas Copco Epiroc 液位指示器 4700 9136 14
    4700924587 LEVEL GAUGE Atlas Copco Epiroc 液位计 4700 9245 87
    4700935802 LEVEL PLUG Atlas Copco Epiroc 液位塞 4700 9358 02
    4700945900 LEVEL Atlas Copco Epiroc 液位 4700 9459 00
    4812033469 LEVEL GAUGE Atlas Copco Epiroc 液位计 4812 0334 69
    4812112421 LEVEL SENSOR Atlas Copco Epiroc 液位传感器 4812 1124 21
    4812112423 LEVEL SENSOR Atlas Copco Epiroc 液位传感器 4812 1124 23
    4812114098 LEVEL SENSOR Atlas Copco Epiroc 液位传感器 4812 1140 98
    4812117942 LEVEL SENSOR Atlas Copco Epiroc 液位传感器 4812 1179 42
    4812160075 LEVEL GAUGE Atlas Copco Epiroc 液位计 4812 1600 75
    4812160252 LEVEL GAUGE Atlas Copco Epiroc 液位计 4812 1602 52
    4812248679 LEVEL SENSOR Atlas Copco Epiroc 液位传感器 4812 2486 79
    4812249153 LEVEL SENSOR Atlas Copco Epiroc 液位传感器 4812 2491 53
    4812315584 LEVEL SENDER Atlas Copco Epiroc 液位发送器 4812 3155 84
    0050258565 LEVEL,CIRCUL Atlas Copco Epiroc 水平,圆形 0050 2585 65
    5112001386 LEVEL INDICATOR Atlas Copco Epiroc 液位指示器 5112 0013 86
    5112013439 LEVEL SENSOR Atlas Copco Epiroc 液位传感器 5112 0134 39
    5112016234 LEVEL INDICATOR Atlas Copco Epiroc 液位指示器 5112 0162 34
    5112208300 LEVEL SENSOR Atlas Copco Epiroc 液位传感器 5112 2083 00
    5112208380 LEVEL SENSOR Atlas Copco Epiroc 液位传感器 5112 2083 80
    5112208381 LEVEL SENSOR Atlas Copco Epiroc 液位传感器 5112 2083 81
    5112208382 LEVEL SENSOR Atlas Copco Epiroc 液位传感器 5112 2083 82
    5112208383 LEVEL METER Atlas Copco Epiroc 液位计 5112 2083 83
    5112301532 LEVEL METER Atlas Copco Epiroc 液位计 5112 3015 32
    5112302581 LEVEL SENSOR Atlas Copco Epiroc 液位传感器 5112 3025 81
    5112323194 LEVEL GLASS Atlas Copco Epiroc 水平玻璃 5112 3231 94
    5112323408 LEVEL SENSOR Atlas Copco Epiroc 液位传感器 5112 3234 08
    5112330544 LEVEL SENSOR Atlas Copco Epiroc 液位传感器 5112 3305 44
    5112331035 LEVEL SENSOR Atlas Copco Epiroc 液位传感器 5112 3310 35
    5541070300 LEVEL SENSOR Atlas Copco Epiroc 液位传感器 5541 0703 00
    5561806000 LEVEL SENSOR Atlas Copco Epiroc 液位传感器 5561 8060 00
    5590003638 LEVEL SENSOR Atlas Copco Epiroc 液位传感器 5590 0036 38
    5590019208 LEVEL SWITCH Atlas Copco Epiroc 液位开关 5590 0192 08
    5590020785 LEVEL SWITCH Atlas Copco Epiroc 液位开关 5590 0207 85
    0056822919 LEVEL Atlas Copco Epiroc 液位 0056 8229 19
    0057100075 LEVEL Atlas Copco Epiroc 液位 0057 1000 75
    5726582355 LEVEL SENSOR Atlas Copco Epiroc 液位传感器 5726 5823 55
    5726802185 LEVEL SENSOR Atlas Copco Epiroc 液位传感器 5726 8021 85
    5726802190 LEVEL SENSOR Atlas Copco Epiroc 液位传感器 5726 8021 90
    5726808893 LEVEL SENSOR Atlas Copco Epiroc 液位传感器 5726 8088 93
    5726811792 LEVEL SENSOR Atlas Copco Epiroc 液位传感器 5726 8117 92
    5727000470 LEVEL SENSOR Atlas Copco Epiroc 液位传感器 5727 0004 70
    5727000471 LEVEL SENSOR Atlas Copco Epiroc 液位传感器 5727 0004 71
    5727000526 LEVEL SENSOR Atlas Copco Epiroc 液位传感器 5727 0005 26
    5727000590 LEVEL SENSOR Atlas Copco Epiroc 液位传感器 5727 0005 90
    5727000619 LEVEL Atlas Copco Epiroc 液位 5727 0006 19
    5727000620 LEVEL PLUG Atlas Copco Epiroc 液位塞 5727 0006 20
    5727002101 LEVEL Atlas Copco Epiroc 液位 5727 0021 01
    5727011179 LEVEL, ASSEMBLED Atlas Copco Epiroc 水平,组装 5727 0111 79
    5727011626 LEVEL INDICATOR Atlas Copco Epiroc 液位指示器 5727 0116 26
    5727100675 LEVEL Atlas Copco Epiroc 液位 5727 1006 75
    5727100814 LEVEL SENSOR Atlas Copco Epiroc 液位传感器 5727 1008 14
    5730005335 LEVEL Atlas Copco Epiroc 液位 5730 0053 35
    5730013013 LEVEL GAUGE Atlas Copco Epiroc 液位计 5730 0130 13
    5730018009 LEVEL INDICATOR Atlas Copco Epiroc 液位指示器 5730 0180 09
    5740009255 LEVEL. TEMP INDI. Atlas Copco Epiroc 水平。独立温度。 5740 0092 55
    5740012104 LEVEL SWITCH Atlas Copco Epiroc 液位开关 5740 0121 04
    5740014240 LEVEL SENSOR Atlas Copco Epiroc 液位传感器 5740 0142 40
    5740184119 LEVEL SENSOR Atlas Copco Epiroc 液位传感器 5740 1841 19
    5740184130 LEVEL-TEMP.IND. Atlas Copco Epiroc 级别TEMP.IND。 5740 1841 30
    5740260118 LEVEL SWITCH Atlas Copco Epiroc 液位开关 5740 2601 18
    0057415986 LEVEL,BRAKE Atlas Copco Epiroc 制动器液位 0057 4159 86
    0057917312 LEVEL, GAUGE Atlas Copco Epiroc 液位计 0057 9173 12
    6060002036 LEVEL GLASS Atlas Copco Epiroc 水平玻璃 6060 0020 36
    6060007665 LEVEL METER Atlas Copco Epiroc 液位计 6060 0076 65
    6060007666 LEVEL SWITCH Atlas Copco Epiroc 液位开关 6060 0076 66
    6060008984 LEVEL SENSOR Atlas Copco Epiroc 液位传感器 6060 0089 84
    6060010232 LEVEL SENSOR Atlas Copco Epiroc 液位传感器 6060 0102 32
    6060011408 LEVEL SENSOR Atlas Copco Epiroc 液位传感器 6060 0114 08
    6060012726 LEVEL GLASS Atlas Copco Epiroc 水平玻璃 6060 0127 26
    8440300194 LEVEL GLASS Atlas Copco Epiroc 水平玻璃 8440 3001 94
    8440300936 LEVEL GUARD Atlas Copco Epiroc 水平防护装置 8440 3009 36
    8440300993 LEVEL GUARD Atlas Copco Epiroc 水平防护装置 8440 3009 93
    8440303173 LEVEL GLASS Atlas Copco Epiroc 水平玻璃 8440 3031 73
    8440306858 LEVEL GAUGE… Atlas Copco Epiroc 液位计… 8440 3068 58
    8440307601 LEVEL INDICATOR OIL… Atlas Copco Epiroc 油位指示器油… 8440 3076 01
    8440309101 LEVEL SWITCH Atlas Copco Epiroc 液位开关 8440 3091 01
    9106152412 LEVEL SENSOR Atlas Copco Epiroc 液位传感器 9106 1524 12
    9106152441 LEVEL SENSOR Atlas Copco Epiroc 液位传感器 9106 1524 41
    9106152444 LEVEL SENSOR Atlas Copco Epiroc 液位传感器 9106 1524 44
    9106152446 LEVEL SENSOR Atlas Copco Epiroc 液位传感器 9106 1524 46
    9106163607 LEVEL SENSOR Atlas Copco Epiroc 液位传感器 9106 1636 07
    9106169048 LEVEL GLASS Atlas Copco Epiroc 水平玻璃 9106 1690 48
    9106177501 LEVEL SENSOR Atlas Copco Epiroc 液位传感器 9106 1775 01
    9106177508 LEVEL SENSOR Atlas Copco Epiroc 液位传感器 9106 1775 08
    9106177534 LEVEL SENSOR Atlas Copco Epiroc 液位传感器 9106 1775 34
    9106219972 LEVEL SENSOR Atlas Copco Epiroc 液位传感器 9106 2199 72
    9106232432 LEVEL SENSOR Atlas Copco Epiroc 液位传感器 9106 2324 32
    9106241168 LEVEL GLASS Atlas Copco Epiroc 水平玻璃 9106 2411 68
    9106977646 LEVEL SENSOR Atlas Copco Epiroc 液位传感器 9106 9776 46
    9120099613 LEVEL HOLDER Atlas Copco Epiroc 电平保持器 9120 0996 13
    9717370632 LEVEL GAUGE Atlas Copco Epiroc 液位计 9717 3706 32
    9717370734 LEVEL GAUGE Atlas Copco Epiroc 液位计 9717 3707 34
    9718486256 LEVEL GAUGE Atlas Copco Epiroc 液位计 9718 4862 56
    9753228829 LEVEL, ASSEMBLED Atlas Copco Epiroc 水平,组装 9753 2288 29
    0981000494 LEVEL SWITCH Atlas Copco Epiroc 液位开关 0981 0004 94
    D100901413 LEVEL GAUGE Atlas Copco Epiroc 液位计 D100901413
    D499127 LEVEL, OIL , GLASS Atlas Copco Epiroc 油位、油位、玻璃液位 D499127
    D904360 LEVEL GLASS, HYD… Atlas Copco Epiroc 液位玻璃,液压… D904360
    GS14150264 LEVEL SENSOR 71-… Atlas Copco Epiroc 液位传感器71-… GS14150264
    GS62111 LEVEL CONTROL FOR… Atlas Copco Epiroc …的级别控制… GS62111
    N402388 LEVEL GAUGE ASSY Atlas Copco Epiroc 液位计总成 N402388
    N404263 LEVEL SWITCH Atlas Copco Epiroc 液位开关 N404263
    N412033 LEVEL SENSOR Atlas Copco Epiroc 液位传感器 N412033
    N412439 LEVEL SENSOR Atlas Copco Epiroc 液位传感器 N412439
    N412453 LEVEL INDICATOR Atlas Copco Epiroc 液位指示器 N412453
    N412467 LEVEL SENSOR Atlas Copco Epiroc 液位传感器 N412467
    N434111 LEVEL JACK RET RING Atlas Copco Epiroc 水平千斤顶固定环 N434111

    View More Spare Parts With Price …

    Leave a Reply

    Your email address will not be published. Required fields are marked *

    error: Content is protected !!
    CPMC uses cookies to offer you a better browsing experience. By browsing this website, you agree to our use of cookies.